Regional Weather Roundup
Issued by NWS

Home | Current Version | Previous Version | Graphics & Text | Print | Product List | Glossary On
Versions: 1 2 3 4 5 6 7 8 9 10 11 12 13 14 15 16 17 18 19 20 21 22 23 24 25 26 27 28 29 30 31 32 33 34 35 36 37 38 39 40 41 42 43 44 45 46 47 48 49 50
000
ASUS43 KLOT 230503
RWRIL

ILLINOIS REGIONAL WEATHER ROUNDUP
NATIONAL WEATHER SERVICE CHICAGO/ROMEOVILLE IL
1100 PM CST THU FEB 22 2018

NOTE: "FAIR" INDICATES FEW OR NO CLOUDS BELOW 12,000 FEET WITH NO
SIGNIFICANT WEATHER AND/OR OBSTRUCTIONS TO VISIBILITY.

* THESE STATIONS ARE NOT UNDER NWS QUALITY CONTROL. THEY ALSO MAY NOT
  REPORT WEATHER SUCH AS PRECIPITATION OR FOG.

ILZ001-002-007-009-015-016-024-230600-
NORTHWEST ILLINOIS

CITY           SKY/WX    TMP DP  RH WIND       PRES   REMARKS
MOLINE         CLOUDY    37  36  96 E9        30.21F FOG     WCI  30
STERLING*      MIX PCPN  36  35  96 E9        30.25F FOG     WCI  29
SAVANNA*       CLOUDY    34  33  97 E7        30.23F FOG     WCI  28
$$

ILZ003-004-008-010-011-017-018-230600-
NORTH CENTRAL ILLINOIS

CITY           SKY/WX    TMP DP  RH WIND       PRES   REMARKS
ROCKFORD       LGT RAIN  36  33  89 E5        30.29S FOG     WCI  32
FREEPORT*      CLOUDY    33  32  98 E7        30.28F FOG     WCI  27
ROCHELLE*      CLOUDY    36  35  96 SE8       30.27F FOG     WCI  29
DE KALB*       CLOUDY    38  36  92 SE10      30.27F FOG     WCI  30
PERU*          CLOUDY    40  39  99 SE9       30.27F FOG
$$

ILZ005-006-012>014-019>023-230600-
NORTHEAST ILLINOIS

CITY           SKY/WX    TMP DP  RH WIND       PRES   REMARKS
CHICAGO-OHARE  CLOUDY    39  35  86 SE16      30.29S WCI  30
CHICAGO-MIDWAY CLOUDY    40  36  86 SE9       30.31S FOG
AURORA         CLOUDY    40  37  89 SE12      30.28F
LANSING*       CLOUDY    39  38  97 SE14      30.31F WCI  31
JOLIET*        CLOUDY    41  41  99 SE10      30.29F FOG
WAUKEGAN       CLOUDY    36  34  92 SE10      30.30F WCI  28
DUPAGE AIRPORT CLOUDY    39  36  89 SE9       30.28S FOG     WCI  33
KANKAKEE*      CLOUDY    40  39  97 SE8       30.32F FOG
WHEELING       CLOUDY    39  36  89 SE10      30.31F WCI  32
MORRIS*        CLOUDY    40  39  96 SE13G20   30.28F FOG
ROMEOVILLE*    CLOUDY    39  37  94 SE10      30.29F FOG     WCI  32
NORTHERLY ISL    N/A     36  33  89 SE9         N/A  WCI  29
$$

LMZ740>746-230600-
SOUTHERN LAKE MICHIGAN

STATION/POSITION SKY/WX   TEMP    WIND        PRES    VSBY  WAVE
                          AIR SEA DIR/SP/G                  HT/PER
                          (F)     (DEG/KT/KT) (MB)    (MI)  (FT/S)
HARRISON CRIB              36     130/ 17/ 19   N/A
BURNHAM HARBOR             36     120/  8/ 11   N/A
CALUMET HARBOR             36     100/  8/ 13 1025.8F
BURNS HARBOR               39     120/  9/ 14 1027.8R
MICHIGAN CITY              38      90/ 10/ 14   N/A
$$

ILZ025>027-034>036-040-047-049-050-058-095>099-230600-
WEST-CENTRAL ILLINOIS

CITY           SKY/WX    TMP DP  RH WIND       PRES   REMARKS
QUINCY         FOG       38  38 100 SE10      30.17F VSB 1/4 WCI  31
GALESBURG*     FOG       39  39 100 E7        30.20F VSB 1/2 WCI  34
MACOMB*        FOG       39  39 100 E10       30.20F VSB 1/4 WCI  32
JACKSONVILLE*  CLOUDY    42  42  99 SE9       30.21R FOG
PITTSFIELD*    FOG       38  38 100 E7        30.20F VSB 1/4 WCI  33
$$

ILZ028>032-037-038-041>044-048-051>054-059>061-230600-
CENTRAL ILLINOIS

CITY           SKY/WX    TMP DP  RH WIND       PRES   REMARKS
BLOOMINGTON    CLOUDY    41  41 100 SE13      30.25F FOG
DECATUR        CLOUDY    43  43 100 SE13      30.22F FOG
PEORIA         FOG       42  41  96 SE8       30.24F VSB 1
LACON*         CLOUDY    41  41 100 SE8       30.25F
LINCOLN*       CLOUDY    44  44 100 SE7       30.24F FOG
SPRINGFIELD    CLOUDY    45  43  93 SE7       30.24F FOG
TAYLORVILLE    CLOUDY    44  44 100 SE18      30.23F
$$

ILZ033-039-045-046-055>057-062-063-230600-
EAST-CENTRAL ILLINOIS

CITY           SKY/WX    TMP DP  RH WIND       PRES   REMARKS
CHAMPAIGN      FOG       42  42 100 SE17      30.25F VSB 1/2
DANVILLE*      CLOUDY    42  42  99 SE12      30.27F FOG
RANTOUL*       CLOUDY    44  44  99 SE15      30.26F FOG
MATTOON        LGT RAIN  44  44 100 S14       30.28F FOG
PARIS*         DRIZZLE   43  43 100 SE9       30.31F
$$

ILZ079-100>102-230600-
SOUTHWEST ILLINOIS

CITY           SKY/WX    TMP DP  RH WIND       PRES   REMARKS
ALTON          CLOUDY    43  43 100 E10       30.19F FOG
BELLEVILLE     LGT RAIN  45  44  95 E6        30.19F
CAHOKIA*       LGT RAIN  44  43  96 E7          N/A
SPARTA*        CLOUDY    44  44 100 SE8       30.25F
$$

ILZ064>066-069>071-074>076-080>082-084>086-088>090-092>094-230600-
SOUTH-CENTRAL ILLINOIS

CITY           SKY/WX    TMP DP  RH WIND       PRES   REMARKS
CARBONDALE     NOT AVBL
CAIRO*         LGT RAIN  48  48 100 E9        30.23F
EFFINGHAM*     LGT RAIN  46  46 100 E6        30.29F VSB 1
MARION         LGT RAIN  47  47  97 E7        30.25R
MT. VERNON     LGT RAIN  46  46 100 NE8       30.25F
CENTRALIA*     LGT RAIN  46  46 100 E7        30.23F
SALEM*         DRIZZLE   47  46  94 E6        30.25F
METROPOLIS*    HVY RAIN  49  49  98 E6        30.26F
$$

ILZ067-068-072-073-078-083-087-091-230600-
SOUTHEAST ILLINOIS

CITY           SKY/WX    TMP DP  RH WIND       PRES   REMARKS
LAWRENCEVILLE  LGT RAIN  47  46  97 SE8       30.33R VSB 1/2
FLORA*         LGT RAIN  48  47  97 E5        30.28F
FAIRFIELD*     LGT RAIN  47  47 100 CALM      30.25F
HARRISBURG*    RAIN      47  47 100 E17       30.25F
ROBINSON*      DRZL/FOG  45  45 100 E6        30.32S VSB 1
CARMI*         LGT RAIN  47  47 100 S7        30.31F
$$

ABBREVIATIONS USED IN REMARKS
   TC - TEMPERATURE IN CELSIUS
  WCI - WIND CHILL INDEX
   HX - HEAT INDEX
  VSB - VISIBILITY
$$





USA.gov is the U.S. government's official web portal to all federal, state and local government web resources and services.